This is the latest recevied weather packets stored in our database for station/object 9W2CHF-4. If no packets are shown the sender has not sent any weather packets the latest 10 day(s).
| Time | Temp. | Humidity | Pressure | Rain* | Wind** | Luminosity | Snow |
|---|---|---|---|---|---|---|---|
| 1778074717 | 31.11° C | 97% | 1009.3 hPa | - | - | - | - |
| 1778073817 | 31.11° C | 94% | 1009.2 hPa | - | - | - | - |
| 1778072917 | 31.11° C | 95% | 1009 hPa | - | - | - | - |
| 1778072017 | 31.11° C | 95% | 1008.9 hPa | - | - | - | - |
| 1778071116 | 31.11° C | 94% | 1008.9 hPa | - | - | - | - |
| 1778070216 | 31.11° C | 92% | 1008.8 hPa | - | - | - | - |
| 1778069316 | 31.67° C | 90% | 1008.6 hPa | - | - | - | - |
| 1778068416 | 31.11° C | 87% | 1008.4 hPa | - | - | - | - |
| 1778067516 | 31.67° C | 77% | 1008.3 hPa | - | - | - | - |
| 1778066616 | 32.22° C | 71% | 1008 hPa | - | - | - | - |
| 1778065716 | 31.67° C | 65% | 1007.7 hPa | - | - | - | - |
| 1778064816 | 31.67° C | 59% | 1007.7 hPa | - | - | - | - |
| 1778063915 | 31.67° C | 58% | 1007.5 hPa | - | - | - | - |
| 1778063014 | 31.67° C | 58% | 1007.3 hPa | - | - | - | - |
| 1778062114 | 31.67° C | 58% | 1007.3 hPa | - | - | - | - |
| 1778061214 | 31.67° C | 60% | 1007 hPa | - | - | - | - |
| 1778060313 | 32.22° C | 63% | 1007 hPa | - | - | - | - |
| 1778059413 | 32.22° C | 64% | 1007 hPa | - | - | - | - |
| 1778058513 | 32.22° C | 73% | 1007 hPa | - | - | - | - |
| 1778057622 | 32.78° C | 83% | 1007 hPa | - | - | - | - |
| 1778056722 | 32.78° C | 84% | 1007 hPa | - | - | - | - |
| 1778055822 | 32.22° C | 84% | 1007.1 hPa | - | - | - | - |
| 1778054922 | 32.22° C | 86% | 1007.1 hPa | - | - | - | - |
| 1778054021 | 32.22° C | 86% | 1007.3 hPa | - | - | - | - |
| 1778053122 | 32.22° C | 87% | 1007.5 hPa | - | - | - | - |
* Rain since midnight (hover to see other rain measurements)
** Current wind speed in m/s (hover to see current wind gust speed)